DW9246 Weather Reports


Display with metric or nautical units.
time (UTC)temp
F
wind
direction
speed
MPH
gust
MPH
rain 1hr
in
rain 24hr
in
rain mn
in
humidity
%
barometer
mb
20181216230019 54 224 2.0 11.0 0.00 0.00 0.00 56 1019.8
20181216225019 54 239 8.0 19.0 0.00 0.00 0.00 56 1019.7
20181216224020 54 234 10.0 27.0 0.00 0.00 0.00 57 1019.5
20181216223019 54 263 4.0 17.0 0.00 0.00 0.00 56 1019.5
20181216222019 54 274 8.0 19.0 0.00 0.00 0.00 55 1019.1
20181216221016 55 284 13.0 34.0 0.00 0.00 0.00 54 1019.2
20181216220017 55 277 14.0 34.0 0.00 0.00 0.00 54 1018.9
20181216215019 55 289 17.0 29.0 0.00 0.00 0.00 54 1018.8
20181216214017 55 298 18.0 37.0 0.00 0.00 0.00 54 1018.7
20181216213017 55 307 21.0 41.0 0.00 0.00 0.00 54 1018.2
20181216212018 56 299 21.0 38.0 0.00 0.00 0.00 54 1017.8
20181216211017 56 301 18.0 36.0 0.00 0.00 0.00 55 1017.4
20181216205018 56 303 18.0 42.0 0.00 0.00 0.00 57 1017.1
20181216204019 56 299 17.0 33.0 0.00 0.00 0.00 58 1017.0
20181216203019 57 305 15.0 41.0 0.00 0.00 0.00 59 1017.1
20181216202016 57 296 8.0 27.0 0.00 0.00 0.00 58 1017.2
20181216201016 57 294 7.0 18.0 0.00 0.00 0.00 57 1017.0
20181216200018 57 279 9.0 26.0 0.00 0.00 0.00 57 1016.7
20181216195016 58 282 7.0 21.0 0.00 0.00 0.00 58 1016.9
20181216194016 58 286 13.0 27.0 0.00 0.00 0.00 59 1016.8
20181216193021 58 284 13.0 22.0 0.00 0.00 0.00 59 1016.7
20181216192018 58 294 14.0 29.0 0.00 0.00 0.00 59 1016.4
20181216190018 58 286 14.0 33.0 0.00 0.00 0.00 59 1016.0
20181216185022 58 287 14.0 29.0 0.00 0.00 0.00 58 1015.7
20181216184019 59 293 17.0 31.0 0.00 0.00 0.00 58 1015.8
20181216183019 59 299 16.0 32.0 0.00 0.00 0.00 58 1015.6
20181216182021 59 299 14.0 32.0 0.00 0.00 0.00 58 1015.5
20181216181022 58 291 11.0 26.0 0.00 0.00 0.00 59 1015.5
20181216180019 59 289 13.0 25.0 0.00 0.00 0.00 58 1015.5
20181216175017 58 286 9.0 22.0 0.00 0.00 0.00 59 1015.6
20181216174016 59 292 13.0 23.0 0.00 0.00 0.00 59 1015.7
20181216173016 59 302 11.0 25.0 0.00 0.00 0.00 59 1015.6
20181216172016 59 291 11.0 22.0 0.00 0.00 0.00 60 1015.5
20181216171019 58 283 10.0 21.0 0.00 0.00 0.00 62 1015.4
20181216170020 58 272 10.0 23.0 0.00 0.00 0.00 63 1015.4
20181216165022 58 266 8.0 27.0 0.00 0.00 0.00 66 1015.6
20181216164022 55 245 2.0 12.0 0.00 0.00 0.00 72 1015.7
20181216163017 54 0 0.0 0.0 0.00 0.00 0.00 78 1015.8
20181216162020 55 0 0.0 0.0 0.00 0.00 0.00 77 1015.8
20181216161017 55 0 0.0 0.0 0.00 0.00 0.00 75 1015.7
20181216160024 56 249 0.0 4.0 0.00 0.00 0.00 75 1015.7
20181216155019 56 241 2.0 9.0 0.00 0.00 0.00 74 1015.7
20181216154018 57 231 3.0 10.0 0.00 0.00 0.00 72 1015.7
20181216153016 57 226 3.0 8.0 0.00 0.00 0.00 70 1015.6
20181216152019 58 232 3.0 9.0 0.00 0.00 0.00 68 1015.6
20181216151015 58 231 4.0 10.0 0.00 0.00 0.00 66 1015.4
20181216150016 58 236 5.0 11.0 0.00 0.00 0.00 66 1015.3
20181216145015 59 226 3.0 10.0 0.00 0.00 0.00 65 1015.4
20181216144016 59 208 2.0 10.0 0.00 0.00 0.00 64 1015.2
20181216143016 59 192 1.0 5.0 0.00 0.00 0.00 64 1015.0
20181216142019 59 194 1.0 6.0 0.00 0.00 0.00 64 1015.0
20181216141019 59 200 2.0 8.0 0.00 0.00 0.00 65 1015.0
20181216140020 59 0 0.0 0.0 0.00 0.00 0.00 65 1015.1
20181216135020 58 287 1.0 5.0 0.00 0.00 0.00 65 1015.2
20181216134015 58 289 1.0 5.0 0.00 0.00 0.00 65 1015.1
20181216133017 58 293 1.0 6.0 0.00 0.00 0.00 65 1015.1
20181216132019 58 265 0.0 3.0 0.00 0.00 0.00 67 1015.3
20181216131018 58 282 1.0 8.0 0.00 0.00 0.00 66 1015.5
20181216130017 58 304 3.0 11.0 0.00 0.00 0.00 66 1015.3
20181216125025 58 290 8.0 16.0 0.00 0.00 0.00 65 1015.2
20181216124017 58 288 10.0 19.0 0.00 0.00 0.00 64 1015.4
20181216123021 58 266 6.0 16.0 0.00 0.00 0.00 65 1016.1
20181216122020 57 258 3.0 9.0 0.00 0.00 0.00 67 1016.0
20181216121020 56 0 0.0 0.0 0.00 0.00 0.00 76 1016.1
20181216120023 56 0 0.0 0.0 0.00 0.00 0.00 76 1016.4
20181216115020 56 0 0.0 0.0 0.00 0.00 0.00 76 1016.4
20181216114017 55 0 0.0 0.0 0.00 0.00 0.00 77 1016.4
20181216113016 55 144 5.0 12.0 0.00 0.00 0.00 76 1016.7
20181216112018 57 167 1.0 5.0 0.00 0.00 0.00 70 1017.0
20181216111014 57 248 2.0 9.0 0.00 0.00 0.00 70 1017.3
20181216110018 56 0 0.0 0.0 0.00 0.00 0.00 74 1017.4
20181216105020 56 0 0.0 0.0 0.00 0.00 0.00 74 1017.6
20181216104027 56 0 0.0 0.0 0.00 0.00 0.00 75 1017.8
20181216103021 57 165 0.0 5.0 0.00 0.00 0.00 75 1018.0
20181216102020 57 0 0.0 0.0 0.00 0.00 0.00 74 1017.5
20181216101017 57 0 0.0 0.0 0.00 0.00 0.00 72 1017.6
20181216100019 56 0 0.0 0.0 0.00 0.00 0.00 73 1017.6
20181216095018 56 0 0.0 0.0 0.00 0.00 0.00 73 1017.7
20181216094017 56 0 0.0 0.0 0.00 0.00 0.00 72 1017.7
20181216093022 56 0 0.0 0.0 0.00 0.00 0.00 72 1017.5
20181216092020 56 0 0.0 0.0 0.00 0.00 0.00 74 1017.4
20181216091019 55 0 0.0 0.0 0.00 0.00 0.00 74 1017.5
20181216090022 54 0 0.0 0.0 0.00 0.00 0.00 79 1017.4
20181216085021 54 0 0.0 0.0 0.00 0.00 0.00 78 1017.1
20181216084020 54 0 0.0 0.0 0.00 0.00 0.00 78 1017.2
20181216083020 54 0 0.0 0.0 0.00 0.00 0.00 76 1017.0
20181216082015 54 0 0.0 0.0 0.00 0.00 0.00 76 1017.0
20181216081021 54 0 0.0 0.0 0.00 0.00 0.00 77 1017.0
20181216080024 54 0 0.0 0.0 0.00 0.00 0.00 77 1017.0
20181216075024 54 0 0.0 0.0 0.00 0.00 0.00 75 1016.9
20181216074026 54 0 0.0 0.0 0.00 0.00 0.00 75 1016.6
20181216073024 54 0 0.0 0.0 0.00 0.00 0.00 77 1016.6
20181216072022 53 0 0.0 0.0 0.00 0.00 0.00 77 1016.7
20181216071021 53 0 0.0 0.0 0.00 0.00 0.00 77 1016.6
20181216070027 53 0 0.0 0.0 0.00 0.00 0.00 77 1016.5
20181216065018 53 0 0.0 0.0 0.00 0.00 0.00 77 1016.6
20181216064020 53 0 0.0 0.0 0.00 0.00 0.00 78 1016.7
20181216063028 53 313 0.0 2.0 0.00 0.00 0.00 77 1016.9
20181216062022 53 314 0.0 1.0 0.00 0.00 0.00 77 1017.2
20181216061026 53 321 1.0 6.0 0.00 0.00 0.00 77 1016.9
20181216060024 53 0 0.0 0.0 0.00 0.00 0.00 77 1016.5
20181216055021 54 0 0.0 0.0 0.00 0.00 0.00 76 1016.9
20181216054021 54 0 0.0 0.0 0.00 0.00 0.00 74 1016.7
20181216053035 56 0 0.0 0.0 0.00 0.00 0.00 72 1016.7
20181216052028 56 51 1.0 5.0 0.00 0.00 0.00 71 1016.3
20181216051042 55 42 2.0 10.0 0.00 0.00 0.00 72 1016.2
20181216050052 56 21 3.0 9.0 0.00 0.00 0.00 72 1016.2
20181216045046 56 73 5.0 12.0 0.00 0.00 0.00 72 1016.4
20181216044018 56 34 5.0 12.0 0.00 0.00 0.00 71 1016.2
20181216043018 56 32 1.0 10.0 0.00 0.00 0.00 71 1016.1
20181216042017 56 29 1.0 12.0 0.00 0.00 0.00 71 1016.0
20181216041014 56 49 3.0 9.0 0.00 0.00 0.00 70 1015.9
20181216040020 58 86 1.0 7.0 0.00 0.00 0.00 68 1015.9
20181216035015 56 39 0.0 5.0 0.00 0.00 0.00 70 1016.0
20181216034016 57 1 4.0 10.0 0.00 0.00 0.00 69 1015.9
20181216033017 59 315 10.0 23.0 0.00 0.00 0.00 65 1015.9
20181216032016 59 295 6.0 19.0 0.00 0.00 0.00 65 1016.0
20181216031020 59 295 12.0 29.0 0.00 0.00 0.00 65 1016.2
20181216030024 59 302 14.0 28.0 0.00 0.00 0.00 65 1016.3
20181216025018 59 305 18.0 34.0 0.00 0.00 0.00 65 1016.2
20181216024017 59 308 15.0 33.0 0.00 0.00 0.00 65 1016.3
20181216023022 59 288 15.0 31.0 0.00 0.00 0.00 64 1016.4
20181216022020 59 289 17.0 31.0 0.00 0.00 0.00 64 1016.6
20181216021018 59 292 15.0 27.0 0.00 0.00 0.00 65 1016.8
20181216020016 59 291 15.0 25.0 0.00 0.00 0.00 64 1016.8
20181216015020 59 296 12.0 22.0 0.00 0.00 0.00 65 1016.8
20181216014024 59 294 13.0 23.0 0.00 0.00 0.00 65 1016.9
20181216013020 59 291 12.0 23.0 0.00 0.00 0.00 65 1017.1
20181216012018 59 291 12.0 19.0 0.00 0.00 0.00 65 1017.2
20181216011020 59 291 13.0 23.0 0.00 0.00 0.00 65 1017.2
20181216010037 59 292 13.0 21.0 0.00 0.00 0.00 65 1017.4
20181216005035 59 302 12.0 22.0 0.00 0.00 0.00 65 1017.6
20181216004033 59 292 5.0 15.0 0.00 0.00 0.00 66 1017.7
20181216003029 59 299 6.0 13.0 0.00 0.00 0.00 67 1017.7
20181216002036 59 283 7.0 13.0 0.00 0.00 0.00 67 1017.9
20181216001031 59 286 5.0 11.0 0.00 0.00 0.00 66 1018.1
20181216000046 60 305 5.0 16.0 0.00 0.00 0.00 66 1018.3
20181215235028 60 311 7.0 19.0 0.00 0.00 0.00 65 1018.3
20181215234029 60 296 9.0 20.0 0.00 0.00 0.00 66 1018.3
20181215233032 60 287 9.0 17.0 0.00 0.00 0.00 65 1018.5
20181215232029 60 288 9.0 17.0 0.00 0.00 0.00 65 1018.7
20181215231036 60 283 11.0 20.0 0.00 0.00 0.00 65 1018.7